Portada
METAR-TAF:

METAR-TAF

Aeropuertos :

Yao, Japón

latitud: 34-36N, longitud: 135-36E, altitud: 10 m

Observación

El informe se hizo hace 1 hora y 18 minutos, a las 00:00 UTC
Viento 3 kt del este-sureste, variando entre este y sur
Temperatura 19°C
Humedad 88%
Presión 1018 hPa
Visibilidad 10 km o más
Escasas nubes a una altura de 300 ft
Nubes dispersas a una altura de 5000 ft
Cielo nuboso a una altura de 8000 ft
lluvia ligera

METAR: RJOY 310000Z 12003KT 090V170 9999 -RA FEW003 SCT050 BKN080 19/17 Q1018

Hora: 10:18 (01:18 UTC)


TAF: falta

Observaciones y pronósticos meteorológicos de más de 4000 aeropuertos (mensajes METAR y TAF).

Los puntos amarillos y rojos representan las estaciones disponibles.

Ponga el ratón en el punto deseado para ver el nombre de la estación.

Haga clic para ver las observaciones y los pronósticos meteorológicos.

Para cambiar el mapa : haga clic en los botones verdes con una cruz de color negro para hacer un zoom, en el botón verde con un guión para alejar o en las flechas verdes para mapas adyacentes.


METAR-TAF: